Regional Weather Roundup
Issued by NWS Sioux Falls, SD

Home | Current Version | Previous Version | Text Only | Print | Product List | Glossary On
Versions: 1 2 3 4 5 6 7 8 9 10 11 12 13 14 15 16 17 18 19 20 21 22 23 24 25 26 27 28 29 30 31 32 33 34 35 36 37 38 39 40 41 42 43 44 45 46 47 48 49 50
000
ASUS43 KFSD 281602
RWRFSD

WEATHER ROUNDUP FOR SE SOUTH DAKOTA/SW MINNESOTA/NW IOWA
NATIONAL WEATHER SERVICE SIOUX FALLS SD
1100 AM CDT SUN MAY 28 2017

NOTE: "FAIR" INDICATES FEW OR NO CLOUDS BELOW 12,000 FEET WITH NO
SIGNIFICANT WEATHER AND OR OBSTRUCTIONS TO VISIBILITY.


SDZ038>040-050-052>070-281700-
SOUTHEAST SOUTH DAKOTA

CITY           SKY/WX    TMP DP  RH WIND       PRES   REMARKS
BROOKINGS      PTSUNNY   64  44  48 NW18      29.87S
CHAMBERLAIN    SUNNY     72  41  32 NW22G31   29.96R
HURON          SUNNY     69  44  40 NW21G26   29.89F
MADISON        FAIR      64  48  55 NW14      29.90R
MITCHELL       SUNNY     70  45  40 N25G32    29.91R
SIOUX FALLS    MOSUNNY   68  50  52 NW9       29.87S
WINNER         FAIR      70  43  37 N16       29.99S
YANKTON        SUNNY     67  51  56 W15       29.91R
$$

MNZ071-072-080-081-089-090-097-098-281700-
SOUTHWEST MINNESOTA

CITY           SKY/WX    TMP DP  RH WIND       PRES   REMARKS
FAIRMONT       SUNNY     67  44  43 NW14      29.83S
JACKSON        SUNNY     66  41  39 W15       29.84F
LUVERNE        SUNNY     66  41  39 NW10      29.87S
MARSHALL       MOSUNNY   67  43  41 NW18      29.83S
MONTEVIDEO     MOSUNNY   68  45  42 N12G18    29.81S
PIPESTONE      SUNNY     66  39  37 N13G22    29.87S
REDWOOD FALLS  PTSUNNY   67  42  40 NW16G23   29.81S
TRACY          MOSUNNY   67  45  44 W7        29.84S
WINDOM         SUNNY     66  43  42 NW15G21   29.84S
WORTHINGTON    SUNNY     67  44  43 NW12G20   29.86S
$$

IAZ001>003-012>014-020>022-031-032-NEZ013-014-SDZ071-281700-
NORTHWEST IOWA

CITY           SKY/WX    TMP DP  RH WIND       PRES   REMARKS
CHEROKEE       SUNNY     69  49  48 W8        29.87S
DENISON        SUNNY     70  48  46 NW7G15    29.90F
ESTHERVILLE    SUNNY     67  45  45 NW13      29.83F
LE MARS        SUNNY     70  48  46 W9        29.89R
ORANGE CITY    SUNNY     66  48  52 W9        29.88S
SHELDON        SUNNY     66  46  48 VRB7G15   29.86S
SIOUX CITY     SUNNY     72  50  45 NW9       29.88F
SPENCER        SUNNY     68  48  48 NW7       29.86S
STORM LAKE     SUNNY     68  43  40 W8G14     29.87F
$$

ABBREVIATIONS USED IN REMARKS
   TC - TEMPERATURE IN CELSIUS
  WCI - WIND CHILL INDEX
   HX - HEAT INDEX
  VSB - VISIBILITY




USA.gov is the U.S. government's official web portal to all federal, state and local government web resources and services.